Location: ??????
(38.1303°N, 24.0039°E)
Time: 03:41:44
(UTC+00:00)

Cosmos 1655 Rocket - Pass Details

Date: 20 June 2021
Orbit: 971 x 1005 km, 82.9° (Epoch: 25 July)

Event Time Altitude Azimuth Distance (km) Brightness Sun altitude
Exits shadow 01:32:12 17° 200° (SSW) 2,226 5.3 -14.5°
Maximum altitude 01:37:01 65° 278° (W) 1,064 4.0 -13.8°
Drops below altitude 10° 01:43:13 10° 1° (N) 2,731 7.0 -12.9°
Sets 01:45:47 0° 4° (N) 3,686 7.8 -12.6°
